Flag for U.S.A. Weather past 2 weeks in Anchorage, Alaska, U.S.A.

33 °F


Feels Like: 33 °F
Forecast: 33 / 37 °F
Wind: No wind

Location: Lake Hood Seaplane

Current Time: Nov 28, 2015 at 9:52:17 AM

Latest Report: Nov 28, 2015 at 8:53 AM

Visibility: 10 mi

Pressure: 29.52 "Hg

Humidity: 92%

Dew point: 31 °F

Location of AnchorageLocation

Historic Weather in Anchorage — Graph


Anchorage temperature yesterday

Maximum temperature yesterday: 44 °F (at 12:53 PM)
Minimum temperature yesterday: 34 °F (at 4:53 AM)
Average temperature yesterday: 38 °F

Past Weeks' High & Low Weather Summary

High48 °F (Nov 24, 7:53 PM)97% (Nov 26, 5:53 AM)30.32 "Hg (Nov 26, 5:53 AM)
Low-4 °F (Nov 18, 1:53 AM)49% (Nov 13, 11:53 PM)29.16 "Hg (Nov 20, 10:53 PM)
Average21 °F77%29.74 "Hg
* Reported Nov 13 8:53 AM — Nov 28 8:53 AM, Anchorage, Weather by CustomWeather, © 2015

Note: Actual official high and low records may vary slightly from our data, if they occured in-between our weather recording intervals... More about our weather records


Anchorage weather history for previous 24 hours

Time TempWeatherWind HumidityBarometerVisibility
8:53 AM
Sat, Nov 28
33 °FOvercast.No wind92%29.52 "Hg10 mi
7:53 AM34 °FMostly cloudy.5 mph88%29.51 "Hg10 mi
6:53 AM33 °FPassing clouds.3 mph88%29.50 "Hg10 mi
5:53 AM33 °FClear.6 mph88%29.47 "Hg10 mi
4:53 AM34 °FPassing clouds.3 mph85%29.44 "Hg10 mi
3:53 AM34 °FMostly cloudy.No wind88%29.42 "Hg10 mi
2:53 AM34 °FOvercast.No wind88%29.40 "Hg10 mi
1:53 AM32 °FClear.5 mph92%29.40 "Hg10 mi
12:53 AM35 °FMostly cloudy.No wind85%29.40 "Hg10 mi
11:53 PM
Fri, Nov 27
34 °FMostly cloudy.No wind88%29.40 "Hg10 mi
10:53 PM35 °FPassing clouds.No wind85%29.39 "Hg10 mi
9:53 PM35 °FClear.No wind85%29.38 "Hg10 mi
8:53 PM37 °FClear.No wind82%29.39 "Hg10 mi
7:53 PM39 °FPartly cloudy.5 mph73%29.38 "Hg10 mi
6:53 PM38 °FPassing clouds.No wind79%29.36 "Hg10 mi
5:53 PM39 °FPassing clouds.8 mph76%29.33 "Hg10 mi
4:53 PM39 °FOvercast.3 mph76%29.34 "Hg10 mi
3:53 PM41 °FSunny.6 mph74%29.35 "Hg10 mi
2:53 PM40 °FSunny.No wind77%29.36 "Hg10 mi
1:53 PM41 °FOvercast.6 mph80%29.39 "Hg10 mi
12:53 PM44 °FMostly cloudy.10 mph68%29.39 "Hg10 mi
11:53 AM39 °FLight rain. More clouds than sun.No wind82%29.39 "Hg10 mi
10:53 AM39 °FOvercast.10 mph79%29.37 "Hg10 mi
9:53 AM38 °FSunny.7 mph83%29.37 "Hg10 mi
Weather by CustomWeather, © 2015

See weather overviewHow to use our weather pages